| time (UTC) | temp F | wind direction | speed knots | gust knots | rain 1hr in | rain 24hr in | rain mn in | humidity % | barometer mb |
| 20260505014538 | 74 | 115 | 1.7 | 7.0 | 0.00 | 0.00 | 0.00 | 74 | 1010.6 |
| 20260505014012 | 74 | 0 | 0.9 | 7.0 | 0.00 | 0.00 | 0.00 | 74 | 1010.6 |
| 20260505013513 | 74 | 115 | 1.7 | 7.0 | 0.00 | 0.00 | 0.00 | 73 | 1010.6 |
| 20260505013037 | 74 | 126 | 0.0 | 4.3 | 0.00 | 0.00 | 0.00 | 72 | 1010.4 |
| 20260505012514 | 75 | 0 | 0.0 | 6.1 | 0.00 | 0.00 | 0.00 | 72 | 1010.4 |
| 20260505012011 | 75 | 0 | 0.9 | 11.3 | 0.00 | 0.00 | 0.00 | 71 | 1010.3 |
| 20260505011535 | 75 | 162 | 1.7 | 11.3 | 0.00 | 0.00 | 0.00 | 71 | 1010.2 |
| 20260505011015 | 75 | 127 | 0.9 | 8.7 | 0.00 | 0.00 | 0.00 | 70 | 1010.3 |
| 20260505010513 | 76 | 148 | 0.0 | 2.6 | 0.00 | 0.00 | 0.00 | 70 | 1010.4 |
| 20260505010030 | 76 | 150 | 0.0 | 6.1 | 0.00 | 0.00 | 0.00 | 70 | 1010.4 |
| 20260505005514 | 76 | 170 | 0.9 | 6.1 | 0.00 | 0.00 | 0.00 | 69 | 1010.4 |
| 20260505005012 | 76 | 0 | 0.0 | 5.2 | 0.00 | 0.00 | 0.00 | 69 | 1010.4 |
| 20260505004540 | 77 | 94 | 0.0 | 5.2 | 0.00 | 0.00 | 0.00 | 68 | 1010.3 |
| 20260505004015 | 77 | 203 | 0.9 | 5.2 | 0.00 | 0.00 | 0.00 | 68 | 1010.3 |
| 20260505003513 | 77 | 130 | 0.9 | 5.2 | 0.00 | 0.00 | 0.00 | 68 | 1010.2 |
| 20260505003048 | 77 | 0 | 0.0 | 5.2 | 0.00 | 0.00 | 0.00 | 68 | 1010.2 |
| 20260505002513 | 77 | 199 | 1.7 | 5.2 | 0.00 | 0.00 | 0.00 | 67 | 1010.3 |
| 20260505002012 | 77 | 175 | 0.0 | 9.6 | 0.00 | 0.00 | 0.00 | 67 | 1010.4 |
| 20260505001530 | 77 | 192 | 0.9 | 9.6 | 0.00 | 0.00 | 0.00 | 66 | 1010.3 |
| 20260505001010 | 78 | 169 | 1.7 | 9.6 | 0.00 | 0.00 | 0.00 | 66 | 1010.3 |
| 20260505000514 | 78 | 158 | 0.0 | 9.6 | 0.00 | 0.00 | 0.00 | 66 | 1010.3 |
| 20260505000034 | 78 | 174 | 1.7 | 9.6 | 0.00 | 0.00 | 0.00 | 66 | 1010.4 |
| 20260504235513 | 78 | 0 | 1.7 | 6.1 | 0.00 | 0.00 | 0.00 | 66 | 1010.4 |
| 20260504235012 | 78 | 185 | 0.0 | 5.2 | 0.00 | 0.00 | 0.00 | 65 | 1010.6 |
| 20260504234530 | 78 | 0 | 0.9 | 6.1 | 0.00 | 0.00 | 0.00 | 65 | 1010.5 |
| 20260504234016 | 79 | 181 | 2.6 | 6.1 | 0.00 | 0.00 | 0.00 | 65 | 1010.5 |
| 20260504233513 | 79 | 0 | 0.9 | 7.8 | 0.00 | 0.00 | 0.00 | 65 | 1010.4 |
| 20260504233029 | 79 | 182 | 1.7 | 7.8 | 0.00 | 0.00 | 0.00 | 64 | 1010.5 |
| 20260504232515 | 79 | 0 | 1.7 | 7.8 | 0.00 | 0.00 | 0.00 | 63 | 1010.5 |
| 20260504232010 | 79 | 115 | 2.6 | 7.8 | 0.00 | 0.00 | 0.00 | 63 | 1010.6 |
| 20260504231530 | 79 | 345 | 0.9 | 6.1 | 0.00 | 0.00 | 0.00 | 64 | 1010.6 |
| 20260504231014 | 79 | 0 | 0.9 | 12.2 | 0.00 | 0.00 | 0.00 | 64 | 1010.5 |
| 20260504230514 | 80 | 163 | 1.7 | 12.2 | 0.00 | 0.00 | 0.00 | 62 | 1010.8 |
| 20260504230027 | 80 | 249 | 0.9 | 10.4 | 0.00 | 0.00 | 0.00 | 62 | 1010.9 |
| 20260504225512 | 80 | 189 | 3.5 | 10.4 | 0.00 | 0.00 | 0.00 | 60 | 1010.8 |
| 20260504225011 | 80 | 203 | 2.6 | 8.7 | 0.00 | 0.00 | 0.00 | 61 | 1010.8 |
| 20260504224528 | 80 | 0 | 0.0 | 5.2 | 0.00 | 0.00 | 0.00 | 64 | 1010.9 |
| 20260504224010 | 80 | 0 | 0.0 | 5.2 | 0.00 | 0.00 | 0.00 | 62 | 1010.8 |
| 20260504223511 | 80 | 202 | 1.7 | 8.7 | 0.00 | 0.00 | 0.00 | 60 | 1011.0 |
| 20260504223029 | 80 | 0 | 1.7 | 8.7 | 0.00 | 0.00 | 0.00 | 60 | 1011.0 |
| 20260504222512 | 80 | 208 | 0.9 | 10.4 | 0.00 | 0.00 | 0.00 | 60 | 1011.0 |
| 20260504222009 | 81 | 0 | 2.6 | 10.4 | 0.00 | 0.00 | 0.00 | 58 | 1011.0 |
| 20260504221526 | 81 | 0 | 0.9 | 7.8 | 0.00 | 0.00 | 0.00 | 60 | 1011.1 |
| 20260504221011 | 81 | 118 | 1.7 | 7.8 | 0.00 | 0.00 | 0.00 | 60 | 1011.2 |
| 20260504220511 | 81 | 0 | 1.7 | 7.0 | 0.00 | 0.00 | 0.00 | 59 | 1011.2 |
| 20260504220031 | 81 | 264 | 2.6 | 7.8 | 0.00 | 0.00 | 0.00 | 58 | 1011.2 |
| 20260504215510 | 82 | 176 | 0.9 | 7.8 | 0.00 | 0.00 | 0.00 | 59 | 1011.2 |
| 20260504215008 | 82 | 0 | 2.6 | 7.8 | 0.00 | 0.00 | 0.00 | 56 | 1011.2 |
| 20260504214526 | 82 | 0 | 0.9 | 7.8 | 0.00 | 0.00 | 0.00 | 56 | 1011.3 |
| 20260504214013 | 82 | 229 | 1.7 | 7.8 | 0.00 | 0.00 | 0.00 | 55 | 1011.3 |
| 20260504213511 | 82 | 124 | 0.9 | 8.7 | 0.00 | 0.00 | 0.00 | 54 | 1011.4 |
| 20260504213029 | 83 | 198 | 0.9 | 8.7 | 0.00 | 0.00 | 0.00 | 53 | 1011.4 |
| 20260504212509 | 83 | 186 | 2.6 | 8.7 | 0.00 | 0.00 | 0.00 | 52 | 1011.6 |
| 20260504212012 | 83 | 263 | 2.6 | 10.4 | 0.00 | 0.00 | 0.00 | 53 | 1011.6 |
| 20260504211536 | 84 | 182 | 1.7 | 10.4 | 0.00 | 0.00 | 0.00 | 54 | 1011.6 |
| 20260504211011 | 84 | 217 | 1.7 | 10.4 | 0.00 | 0.00 | 0.00 | 52 | 1011.7 |
| 20260504210511 | 84 | 162 | 2.6 | 7.8 | 0.00 | 0.00 | 0.00 | 51 | 1011.8 |
| 20260504210026 | 85 | 0 | 0.0 | 7.8 | 0.00 | 0.00 | 0.00 | 52 | 1011.9 |
| 20260504205007 | 85 | 0 | 1.7 | 7.0 | 0.00 | 0.00 | 0.00 | 52 | 1011.9 |
| 20260504204532 | 84 | 155 | 1.7 | 7.8 | 0.00 | 0.00 | 0.00 | 52 | 1012.2 |
| 20260504204011 | 84 | 0 | 2.6 | 7.8 | 0.00 | 0.00 | 0.00 | 51 | 1012.3 |
| 20260504203514 | 84 | 248 | 2.6 | 7.0 | 0.00 | 0.00 | 0.00 | 52 | 1012.4 |
| 20260504203026 | 84 | 129 | 2.6 | 7.0 | 0.00 | 0.00 | 0.00 | 51 | 1012.4 |
| 20260504202509 | 84 | 0 | 0.9 | 5.2 | 0.00 | 0.00 | 0.00 | 53 | 1012.5 |
| 20260504202011 | 84 | 281 | 0.9 | 9.6 | 0.00 | 0.00 | 0.00 | 53 | 1012.7 |
| 20260504201529 | 84 | 203 | 1.7 | 9.6 | 0.00 | 0.00 | 0.00 | 52 | 1012.9 |
| 20260504201009 | 84 | 186 | 1.7 | 8.7 | 0.00 | 0.00 | 0.00 | 53 | 1012.9 |
| 20260504200511 | 84 | 185 | 0.9 | 8.7 | 0.00 | 0.00 | 0.00 | 51 | 1013.0 |
| 20260504200029 | 84 | 166 | 0.9 | 7.0 | 0.00 | 0.00 | 0.00 | 52 | 1013.1 |
| 20260504195522 | 84 | 156 | 0.0 | 7.0 | 0.00 | 0.00 | 0.00 | 53 | 1013.2 |
| 20260504195012 | 84 | 0 | 0.9 | 7.0 | 0.00 | 0.00 | 0.00 | 52 | 1013.3 |
| 20260504194528 | 84 | 132 | 0.9 | 5.2 | 0.00 | 0.00 | 0.00 | 52 | 1013.4 |
| 20260504194010 | 84 | 61 | 1.7 | 6.1 | 0.00 | 0.00 | 0.00 | 52 | 1013.3 |
| 20260504193513 | 84 | 0 | 0.0 | 7.8 | 0.00 | 0.00 | 0.00 | 52 | 1013.4 |
| 20260504193026 | 84 | 210 | 0.9 | 7.8 | 0.00 | 0.00 | 0.00 | 51 | 1013.5 |
| 20260504192513 | 84 | 218 | 2.6 | 7.8 | 0.00 | 0.00 | 0.00 | 51 | 1013.6 |
| 20260504192014 | 84 | 163 | 1.7 | 8.7 | 0.00 | 0.00 | 0.00 | 51 | 1013.6 |
| 20260504191529 | 84 | 208 | 1.7 | 8.7 | 0.00 | 0.00 | 0.00 | 51 | 1013.5 |
| 20260504191011 | 84 | 226 | 1.7 | 10.4 | 0.00 | 0.00 | 0.00 | 52 | 1013.7 |
| 20260504190510 | 85 | 200 | 2.6 | 10.4 | 0.00 | 0.00 | 0.00 | 50 | 1014.0 |
| 20260504190028 | 85 | 185 | 0.9 | 8.7 | 0.00 | 0.00 | 0.00 | 49 | 1014.0 |
| 20260504185512 | 84 | 231 | 2.6 | 8.7 | 0.00 | 0.00 | 0.00 | 51 | 1014.0 |
| 20260504185011 | 84 | 0 | 0.9 | 7.0 | 0.00 | 0.00 | 0.00 | 52 | 1014.0 |
| 20260504184541 | 83 | 0 | 1.7 | 7.0 | 0.00 | 0.00 | 0.00 | 50 | 1014.0 |
| 20260504184012 | 83 | 286 | 0.9 | 11.3 | 0.00 | 0.00 | 0.00 | 52 | 1014.1 |
| 20260504183029 | 82 | 0 | 0.9 | 7.0 | 0.00 | 0.00 | 0.00 | 52 | 1014.1 |
| 20260504182510 | 82 | 160 | 1.7 | 7.0 | 0.00 | 0.00 | 0.00 | 53 | 1014.2 |
| 20260504182013 | 82 | 176 | 2.6 | 7.0 | 0.00 | 0.00 | 0.00 | 53 | 1014.4 |
| 20260504181531 | 82 | 0 | 0.9 | 10.4 | 0.00 | 0.00 | 0.00 | 55 | 1014.2 |
| 20260504181010 | 81 | 63 | 2.6 | 10.4 | 0.00 | 0.00 | 0.00 | 56 | 1014.2 |
| 20260504180512 | 81 | 236 | 1.7 | 7.0 | 0.00 | 0.00 | 0.00 | 55 | 1014.5 |
| 20260504180028 | 81 | 110 | 1.7 | 8.7 | 0.00 | 0.00 | 0.00 | 52 | 1014.6 |
| 20260504175511 | 82 | 221 | 0.9 | 11.3 | 0.00 | 0.00 | 0.00 | 52 | 1014.6 |
| 20260504175018 | 81 | 128 | 1.7 | 11.3 | 0.00 | 0.00 | 0.00 | 53 | 1014.5 |
| 20260504174529 | 82 | 175 | 1.7 | 10.4 | 0.00 | 0.00 | 0.00 | 52 | 1014.7 |
| 20260504174011 | 82 | 0 | 2.6 | 10.4 | 0.00 | 0.00 | 0.00 | 52 | 1014.8 |
| 20260504173511 | 82 | 0 | 0.9 | 7.8 | 0.00 | 0.00 | 0.00 | 53 | 1014.9 |
| 20260504173028 | 81 | 218 | 0.9 | 6.1 | 0.00 | 0.00 | 0.00 | 53 | 1014.9 |
| 20260504172508 | 81 | 212 | 1.7 | 7.0 | 0.00 | 0.00 | 0.00 | 52 | 1014.9 |
| 20260504171529 | 80 | 205 | 2.6 | 9.6 | 0.00 | 0.00 | 0.00 | 53 | 1015.1 |
| 20260504171011 | 80 | 206 | 2.6 | 9.6 | 0.00 | 0.00 | 0.00 | 54 | 1015.3 |
| 20260504170508 | 80 | 162 | 2.6 | 8.7 | 0.00 | 0.00 | 0.00 | 54 | 1015.2 |
| 20260504151013 | 73 | 173 | 6.1 | 13.0 | 0.00 | 0.00 | 0.00 | 64 | 1016.2 |
| 20260504150514 | 73 | 0 | 2.6 | 9.6 | 0.00 | 0.00 | 0.00 | 65 | 1016.2 |
| 20260504141013 | 63 | 214 | 0.0 | 3.5 | 0.00 | 0.00 | 0.00 | 92 | 1016.2 |
| 20260504140515 | 62 | 0 | 0.0 | 3.5 | 0.00 | 0.00 | 0.00 | 93 | 1016.3 |
| 20260504130512 | 55 | 0 | 0.0 | 1.7 | 0.00 | 0.00 | 0.00 | 92 | 1016.1 |
| 20260504110513 | 54 | 0 | 0.0 | 0.0 | 0.00 | 0.00 | 0.00 | 89 | 1015.6 |
| 20260504100510 | 55 | 0 | 0.0 | 0.0 | 0.00 | 0.00 | 0.00 | 87 | 1015.9 |
| 20260504081531 | 57 | 0 | 0.0 | 0.0 | 0.00 | 0.00 | 0.00 | 83 | 1016.5 |
| 20260504081011 | 57 | 0 | 0.0 | 0.0 | 0.00 | 0.00 | 0.00 | 83 | 1016.6 |
| 20260504080512 | 57 | 0 | 0.0 | 0.0 | 0.00 | 0.00 | 0.00 | 83 | 1016.6 |
| 20260504050512 | 61 | 0 | 0.0 | 0.0 | 0.00 | 0.00 | 0.00 | 74 | 1018.5 |
| 20260504045512 | 61 | 0 | 0.0 | 0.0 | 0.00 | 0.00 | 0.00 | 72 | 1018.4 |
| 20260504045011 | 61 | 0 | 0.0 | 0.0 | 0.00 | 0.00 | 0.00 | 72 | 1018.5 |
| 20260504044533 | 61 | 0 | 0.0 | 0.0 | 0.00 | 0.00 | 0.00 | 72 | 1018.5 |
| 20260504044011 | 62 | 0 | 0.0 | 0.0 | 0.00 | 0.00 | 0.00 | 71 | 1018.6 |
| 20260504043511 | 62 | 0 | 0.0 | 0.0 | 0.00 | 0.00 | 0.00 | 71 | 1018.7 |
| 20260504043031 | 62 | 0 | 0.0 | 0.9 | 0.00 | 0.00 | 0.00 | 70 | 1018.7 |
| 20260504042513 | 62 | 0 | 0.0 | 0.9 | 0.00 | 0.00 | 0.00 | 70 | 1018.6 |
| 20260504042048 | 62 | 0 | 0.0 | 0.9 | 0.00 | 0.00 | 0.00 | 70 | 1018.7 |
| 20260504041534 | 62 | 0 | 0.0 | 0.9 | 0.00 | 0.00 | 0.00 | 70 | 1018.6 |
| 20260504041012 | 63 | 0 | 0.0 | 0.0 | 0.00 | 0.00 | 0.00 | 69 | 1018.7 |
| 20260504040512 | 63 | 0 | 0.0 | 0.0 | 0.00 | 0.00 | 0.00 | 69 | 1018.6 |
| 20260504040030 | 63 | 0 | 0.0 | 0.0 | 0.00 | 0.00 | 0.00 | 69 | 1018.7 |
| 20260504035512 | 63 | 0 | 0.0 | 0.0 | 0.00 | 0.00 | 0.00 | 69 | 1018.7 |
| 20260504035012 | 63 | 0 | 0.0 | 0.0 | 0.00 | 0.00 | 0.00 | 68 | 1018.7 |
| 20260504034532 | 63 | 0 | 0.0 | 0.0 | 0.00 | 0.00 | 0.00 | 68 | 1018.6 |
| 20260504034012 | 64 | 0 | 0.0 | 0.9 | 0.00 | 0.00 | 0.00 | 69 | 1018.6 |
| 20260504033512 | 64 | 0 | 0.0 | 0.9 | 0.00 | 0.00 | 0.00 | 68 | 1018.6 |
| 20260504033030 | 64 | 0 | 0.0 | 1.7 | 0.00 | 0.00 | 0.00 | 67 | 1018.5 |
| 20260504032512 | 64 | 0 | 0.0 | 1.7 | 0.00 | 0.00 | 0.00 | 67 | 1018.6 |
| 20260504032010 | 64 | 154 | 0.0 | 2.6 | 0.00 | 0.00 | 0.00 | 67 | 1018.6 |
| 20260504031530 | 64 | 0 | 0.0 | 2.6 | 0.00 | 0.00 | 0.00 | 67 | 1018.6 |
| 20260504031009 | 64 | 0 | 0.0 | 3.5 | 0.00 | 0.00 | 0.00 | 66 | 1018.5 |
| 20260504030512 | 64 | 0 | 0.0 | 3.5 | 0.00 | 0.00 | 0.00 | 65 | 1018.5 |
| 20260504030029 | 64 | 0 | 0.0 | 1.7 | 0.00 | 0.00 | 0.00 | 67 | 1018.5 |
| 20260504025510 | 64 | 0 | 0.0 | 3.5 | 0.00 | 0.00 | 0.00 | 67 | 1018.4 |
| 20260504025012 | 65 | 133 | 0.0 | 3.5 | 0.00 | 0.00 | 0.00 | 65 | 1018.4 |
| 20260504024531 | 65 | 168 | 0.0 | 2.6 | 0.00 | 0.00 | 0.00 | 64 | 1018.3 |
| 20260504024012 | 65 | 206 | 0.0 | 2.6 | 0.00 | 0.00 | 0.00 | 63 | 1018.2 |
| 20260504023510 | 65 | 0 | 0.0 | 0.0 | 0.00 | 0.00 | 0.00 | 63 | 1018.1 |
| 20260504023031 | 66 | 0 | 0.0 | 0.0 | 0.00 | 0.00 | 0.00 | 63 | 1018.2 |
| 20260504022514 | 66 | 0 | 0.0 | 0.0 | 0.00 | 0.00 | 0.00 | 62 | 1018.2 |
| 20260504022009 | 66 | 0 | 0.0 | 2.6 | 0.00 | 0.00 | 0.00 | 62 | 1018.2 |
| 20260504021530 | 67 | 0 | 0.0 | 2.6 | 0.00 | 0.00 | 0.00 | 61 | 1018.2 |
| 20260504021012 | 67 | 169 | 0.0 | 1.7 | 0.00 | 0.00 | 0.00 | 61 | 1018.0 |
| 20260504020510 | 67 | 0 | 0.0 | 0.0 | 0.00 | 0.00 | 0.00 | 59 | 1018.0 |
| 20260504020031 | 68 | 0 | 0.0 | 0.0 | 0.00 | 0.00 | 0.00 | 58 | 1018.0 |
| 20260504015511 | 68 | 0 | 0.0 | 0.0 | 0.00 | 0.00 | 0.00 | 57 | 1017.8 |
| 20260504015015 | 68 | 0 | 0.0 | 0.0 | 0.00 | 0.00 | 0.00 | 55 | 1017.8 |